Probability
0 0 0 0 0 0 0 0 0 0 0 0 0 0 0 0 0 0 0 0 0 0 0 0 0 0 0 0 0 0 0 0 0 0 0 0 0 0 0 0 0 0 0
0 0 0 0 0 0 0 0 0 0 0 0 0 0 0 0 0 0 0 0 0 0 0 0 0 0 0 0 0 0 0 0 0 0 0 0 0 0 0 0 0 0 0
0 0 0 0 0 0 0 0 0 0 0 0 0 0 0 0 0 0 0 0 0 0 0 0 0 0 0 0 0 0 0 0 0 0 0 0 0 0 0 0 0 0 0
0 0 0 0 0 0 0 0 0 0 0 0 0 0 0 0 0 0 0 0 0 0 0 0 0 0 0 0 0 0 0 0 0 0 0 0 0 0 0 0 0 0 0
0 0 0 0 0 0 0 0 0 0 0 0 0 0 0 0 0 0 0 0 0 0 0 0 0 0 0 0 0 0 0 0 0 0 0 0 0 0 0 0 0 0 0
0 0 0 0 0 0 0 0 0 0 0 0 0 0 0 0 0 0 0 0 0 0 0 0 0 0 0 0 0 0 0 0 0 0 0 0 0 0 0 0 0 0 0
0 0 0 0 0 0 0 0 0 0 0 0 0 0 0 0 0 0 0 0 0 0 0 0 0 0 0 0 0 0 0 0 0 0 0 0 0 0 0 0 0 0 0
0 0 0 0 0 0 0 0 0 0 0 0 0 0 0 0 0 0 0 0 0 0 0 0 0 0 0 0 0 0 0 0 0 0 0 0 0 0 0 0 0 0 0
0 0 0 0 0 0 0 0 0 0 0 0 0 0 0 0 0 0 0 0 0 0 0 0 0 0 0 0 0 0 0 0 0 0 0 0 0 0 0 0 0 0 0
0 0 0 0 0 0 0 0 0 0 0 0 0 0 0 0 0 0 0 0 0 0 0 0 0 0 0 0 0 0 0 0 0 0 0 0 0 0 0 0 0 0 0
0 0 0 0 0 0 0 0 0 0 0 0 0 0 0 0 0 0 0 0 0 0 0 0 0 0 0 0 0 0 0 0 0 0 0 0 0 0 0 0 0 0 0
0 0 0 0 0 0 0 0 0 0 0 0 0 0 0 0 0 0 0 0 0 0 0 0 0 0 0 0 0 0 0 0 0 0 0 0 0 0 0 0 0 0 0
0 0 0 0 0 0 0 0 0 0 0 0 0 0 0 0 0 0 0 0 0 0 0 0 0 0 0 0 0 0 0 0 0 0 0 0 0 0 0 0 0 0 0
0 0 0 0 0 0 0 0 0 0 0 0 0 0 0 0 0 0 0 0 0 0 0 0 0 0 0 0 0 0 0 0 0 0 0 0 0 0 0 0 0 0 0
0 0 0 0 0 0 0 0 0 0 0 0 0 0 0 0 0 0 0 0 0 0 0 0 0 0 0 0 0 0 0 0 0 0 0 0 0 0 0 0 0 0 0
0 0 0 0 0 0 0 0 0 0 0 0 0 0 0 0 0 0 0 0 0 0 0 0 0 0 0 0 0 0 0 0 0 0 0 0 0 0 0 0 0 0 0
0 0 0 0 0 0 0 0 0 0 0 0 0 0 0 0 0 0 0 0 0 0 0 0 0 0 0 0 0 0 0 0 0 0 0 0 0 0 0 0 0 0 0
0 0 0 0 0 0 0 0 0 0 0 0 0 0 0 0 0 0 0 0 0 0 0 0 0 0 0 0 0 0 0 0 0 0 0 0 0 0 0 0 0 0 0
0 0 0 0 0 0 0 0 0 0 0 0 0 0 0 0 0 0 0 0 0 0 0 0 0 0 0 0 0 0 0 0 0 0 0 0 0 0 0 0 0 0 0
0 0 0 0 0 0 0 0 0 0 0 0 0 0 0 0 0 0 0 0 0 0 0 0 0 0 0 0 0 0 0 0 0 0 0 0 0 0 0 0 0 0 0
0 0 0 0 0 0 0 0 0 0 0 0 0 0 0 0 0 0 0 0 0 0 0 0 0 0 0 0 0 0 0 0 0 0 0 0 0 0 0 0 0 0 0
0 0 0 0 0 0 0 0 0 0 0 0 0 0 0 0 0 0 0 0 0 0 0 0 0 0 0 0 0 0 0 0 0 0 0 0 0 0 0 0 0 0 0
0 0 0 0 0 0 0 0 0 0 0 0 0 0 0 0 0 0 0 0 0 0 0 0 0 0 0 0 0 0 0 0 0 0 0 0 0 0 0 0 0 0 0
0 0 0 0 0 0 0 0 0 0 0 0 0 0 0 0 0 0 0 0 0 0 0 0 0 0 0 0 0 0 0 0 0 0 0 0 0 0 0 0 0 0 0
0 0 0 0 0 0 0 0 0 0 0 0 0 0 0 0 0 0 0 0 0 0 0 0 0 0 0 0 0 0 0 0 0 0 0 0 0 0 0 0 0 0 0
0 0 0 0 0 0 0 0 0 0 0 0 0 0 0 0 0 0 0 0 0 0 0 0 0 0 0 0 0 0 0 0 0 0 0 0 0 0 0 0 0 0 0
Height
5708 5708 5708 5709 5710 5711 5712 5713 5715 5716 5717 5719 5720 5722 5724 5725 5727 5728 5730 5732 5733 5734 5736 5737 5738 5740 5741 5743 5744 5745 5747 5748 5749 5751 5752 5753 5754 5755 5756 5757 5758 5759 5759
5699 5699 5699 5699 5700 5701 5702 5703 5705 5706 5707 5708 5710 5712 5713 5714 5716 5718 5719 5721 5722 5724 5725 5726 5727 5729 5730 5732 5733 5734 5735 5736 5737 5739 5740 5741 5743 5743 5744 5745 5746 5746 5747
5690 5690 5690 5690 5691 5691 5692 5694 5694 5696 5697 5698 5699 5701 5702 5704 5706 5707 5709 5710 5711 5713 5714 5715 5716 5717 5718 5720 5721 5722 5723 5724 5725 5726 5727 5729 5730 5732 5732 5733 5733 5734 5735
5681 5681 5681 5681 5681 5682 5682 5683 5684 5685 5686 5687 5688 5690 5691 5693 5695 5696 5697 5699 5700 5701 5702 5703 5704 5705 5707 5708 5709 5710 5711 5711 5712 5713 5714 5716 5717 5719 5720 5721 5721 5721 5722
5672 5672 5671 5671 5672 5672 5672 5673 5673 5674 5675 5676 5677 5679 5680 5682 5683 5685 5686 5687 5688 5690 5690 5691 5692 5693 5694 5695 5696 5697 5698 5698 5699 5700 5701 5702 5703 5704 5706 5708 5709 5708 5709
5663 5662 5662 5661 5662 5662 5662 5662 5663 5664 5664 5665 5666 5667 5668 5670 5671 5673 5674 5675 5677 5678 5678 5679 5680 5681 5682 5682 5683 5684 5685 5685 5686 5687 5688 5688 5689 5690 5691 5693 5695 5695 5696
5653 5653 5652 5652 5652 5652 5652 5652 5652 5653 5653 5654 5655 5656 5657 5658 5660 5661 5662 5663 5664 5666 5666 5667 5667 5668 5668 5669 5670 5671 5672 5673 5673 5674 5674 5675 5675 5676 5677 5678 5680 5681 5682
5643 5643 5642 5642 5642 5641 5641 5641 5641 5642 5642 5642 5643 5644 5645 5646 5648 5649 5650 5651 5652 5653 5653 5654 5654 5654 5655 5656 5656 5657 5658 5659 5660 5660 5660 5660 5661 5661 5662 5663 5664 5665 5667
5633 5632 5632 5631 5631 5631 5630 5630 5630 5630 5630 5631 5631 5632 5633 5634 5635 5636 5637 5638 5639 5640 5640 5640 5641 5641 5642 5642 5643 5643 5644 5645 5645 5646 5646 5646 5646 5646 5647 5648 5649 5650 5651
5622 5621 5621 5620 5620 5619 5619 5618 5618 5618 5619 5619 5620 5620 5621 5622 5622 5623 5624 5625 5626 5626 5626 5627 5627 5627 5628 5628 5628 5629 5630 5631 5631 5631 5632 5631 5631 5631 5632 5632 5633 5634 5635
5610 5609 5609 5609 5608 5608 5607 5607 5606 5606 5606 5607 5607 5608 5608 5609 5609 5610 5610 5611 5612 5612 5612 5612 5613 5613 5613 5614 5614 5615 5615 5616 5616 5616 5616 5617 5616 5616 5617 5617 5618 5618 5619
5599 5598 5597 5597 5596 5595 5595 5594 5594 5594 5594 5594 5594 5594 5595 5595 5596 5596 5597 5596 5597 5598 5598 5598 5598 5599 5599 5599 5599 5600 5600 5600 5601 5601 5601 5601 5601 5601 5601 5601 5601 5602 5602
5587 5586 5585 5585 5584 5583 5582 5582 5581 5581 5581 5581 5581 5581 5582 5582 5582 5582 5582 5582 5582 5583 5583 5584 5584 5584 5584 5584 5584 5584 5585 5585 5585 5585 5585 5585 5585 5585 5585 5585 5585 5585 5586
5575 5574 5573 5572 5571 5570 5570 5569 5568 5568 5568 5568 5568 5568 5568 5568 5569 5568 5568 5568 5568 5568 5568 5569 5569 5569 5569 5569 5569 5568 5568 5569 5569 5568 5569 5569 5569 5569 5569 5568 5569 5569 5569
5564 5562 5561 5560 5559 5558 5557 5556 5556 5555 5555 5554 5554 5554 5554 5554 5554 5554 5554 5554 5553 5553 5554 5554 5554 5554 5554 5553 5553 5553 5552 5552 5552 5552 5552 5552 5552 5552 5552 5552 5552 5552 5552
5552 5551 5549 5548 5547 5546 5545 5544 5543 5542 5541 5541 5540 5540 5540 5540 5539 5539 5539 5539 5539 5538 5538 5538 5538 5538 5538 5537 5537 5536 5536 5535 5535 5535 5535 5535 5535 5535 5535 5535 5535 5535 5535
5541 5539 5537 5536 5535 5533 5532 5531 5530 5529 5528 5527 5527 5526 5525 5525 5524 5524 5524 5524 5523 5523 5522 5522 5522 5521 5521 5521 5520 5519 5519 5519 5518 5518 5517 5517 5517 5517 5517 5517 5517 5517 5517
5531 5528 5526 5524 5523 5521 5520 5519 5517 5516 5515 5514 5513 5511 5510 5510 5509 5508 5508 5508 5507 5507 5506 5506 5505 5505 5504 5503 5503 5502 5501 5501 5500 5500 5500 5500 5500 5499 5499 5499 5499 5499 5499
5519 5517 5515 5513 5511 5509 5508 5506 5504 5503 5502 5500 5498 5497 5496 5495 5494 5493 5492 5491 5491 5490 5489 5489 5488 5488 5487 5486 5485 5484 5484 5483 5483 5482 5482 5481 5482 5481 5481 5481 5482 5481 5481
5508 5505 5503 5501 5499 5497 5495 5494 5492 5490 5488 5486 5484 5483 5481 5479 5478 5477 5476 5475 5474 5473 5473 5472 5471 5470 5470 5469 5467 5466 5466 5466 5465 5464 5463 5463 5463 5462 5461 5461 5462 5463 5463
5496 5493 5491 5489 5486 5484 5482 5480 5478 5476 5474 5472 5470 5468 5466 5464 5463 5462 5460 5459 5458 5457 5456 5456 5455 5453 5452 5451 5450 5448 5447 5446 5446 5446 5445 5445 5444 5443 5443 5442 5443 5443 5443
5484 5481 5478 5476 5473 5471 5469 5467 5464 5462 5460 5458 5456 5453 5451 5449 5447 5445 5444 5442 5441 5440 5439 5437 5436 5435 5433 5432 5431 5430 5428 5427 5427 5427 5426 5426 5425 5424 5424 5424 5423 5423 5424
5471 5468 5465 5463 5460 5457 5455 5453 5450 5448 5445 5443 5441 5438 5436 5434 5431 5430 5428 5426 5424 5423 5421 5420 5419 5418 5416 5414 5413 5411 5409 5408 5407 5407 5407 5406 5406 5405 5405 5405 5404 5404 5404
5458 5455 5452 5450 5447 5444 5441 5438 5436 5433 5430 5428 5425 5423 5420 5418 5415 5413 5411 5409 5408 5406 5404 5402 5401 5400 5398 5396 5394 5393 5391 5389 5388 5388 5388 5387 5387 5386 5386 5386 5386 5385 5386
5445 5442 5439 5437 5434 5430 5427 5424 5421 5418 5416 5413 5410 5408 5405 5402 5399 5397 5394 5392 5390 5388 5386 5385 5383 5382 5380 5378 5376 5373 5372 5371 5370 5369 5369 5368 5368 5368 5368 5368 5368 5368 5367
5432 5429 5426 5423 5420 5417 5414 5410 5407 5404 5401 5398 5395 5392 5389 5386 5383 5381 5378 5374 5373 5370 5368 5366 5364 5363 5361 5359 5357 5355 5353 5352 5351 5350 5350 5350 5350 5350 5350 5350 5350 5350 5349
Wind_Speed
34 35 35 36 37 38 39 39 39 39 40 40 41 41 42 42 42 43 43 42 43 44 44 44 44 45 45 45 45 45 46 46 46 46 46 47 46 47 47 48 48 48 47
34 34 35 36 37 38 39 39 40 40 40 40 41 42 43 43 43 43 44 44 44 44 45 45 45 45 46 47 46 46 47 47 47 48 48 47 47 48 49 49 49 49 49
32 33 35 36 37 38 38 40 40 40 41 41 42 42 43 43 44 44 44 45 44 44 45 45 46 46 47 47 48 48 48 48 48 49 49 49 49 49 49 49 49 50 50
31 32 33 34 36 37 38 39 40 41 41 42 42 43 44 44 44 44 45 45 45 45 46 46 46 46 47 48 48 48 48 48 48 49 49 49 49 50 50 49 50 50 51
32 33 33 34 35 36 38 38 40 41 42 43 43 44 44 44 44 45 45 46 46 46 45 47 47 46 46 47 47 48 48 49 48 48 49 50 50 51 51 50 50 51 52
33 33 34 34 35 36 37 38 39 41 42 42 43 44 44 45 45 45 45 46 46 46 46 47 48 48 48 48 48 48 49 49 48 48 49 49 50 51 51 51 51 51 52
33 33 33 34 35 36 37 38 39 40 42 43 43 44 44 44 45 45 45 46 46 47 47 48 48 49 50 50 49 49 49 49 50 49 49 50 50 51 52 52 52 52 53
34 34 35 35 36 37 37 38 39 40 41 42 43 44 45 45 46 46 47 46 47 47 48 49 49 49 51 51 52 51 51 50 51 51 50 51 51 52 52 53 53 53 53
34 35 36 37 37 37 38 39 39 40 40 41 42 43 45 46 47 47 48 48 48 48 49 50 50 50 50 51 52 52 52 51 51 52 51 51 52 52 52 53 53 54 54
35 35 36 37 38 38 39 39 40 40 41 42 43 44 45 46 47 48 49 49 49 49 49 50 50 50 51 51 52 52 52 52 52 53 53 53 53 53 54 54 55 55 55
35 36 37 38 39 39 39 40 40 41 41 42 44 44 45 45 47 48 48 50 51 50 50 49 50 50 50 51 52 53 53 53 54 54 55 55 55 55 56 56 56 57 57
37 37 37 38 39 39 39 40 41 41 42 43 43 44 45 46 47 48 49 49 50 51 51 50 50 50 51 51 51 52 53 54 54 55 55 56 56 56 57 57 57 58 59
38 38 38 38 39 39 40 40 41 42 43 43 44 44 45 46 46 48 49 50 50 51 51 51 51 51 51 52 52 52 53 53 54 55 56 56 57 57 57 57 58 58 59
39 40 40 40 40 40 40 41 41 42 43 44 45 45 46 47 47 48 49 50 51 52 52 52 52 52 53 53 53 53 53 53 54 55 56 56 57 57 58 57 58 58 58
39 40 40 40 40 41 41 41 42 42 44 45 45 46 47 48 48 49 49 50 51 52 52 53 53 53 54 54 54 55 55 56 56 57 57 58 58 58 58 58 58 59 59
38 39 39 39 40 40 40 41 42 43 44 44 45 46 47 48 49 50 51 51 52 53 53 54 55 55 55 56 56 56 57 57 58 58 59 59 59 59 59 59 59 59 59
38 38 38 39 39 40 40 41 42 43 44 44 45 46 48 49 50 50 51 52 53 54 55 55 56 57 57 57 57 57 57 58 58 58 59 59 59 59 59 60 60 60 61
37 38 38 39 39 40 40 41 42 43 44 44 45 46 47 49 50 51 51 52 53 54 55 56 57 58 58 58 58 59 59 59 59 59 59 59 59 59 59 61 61 60 60
38 38 38 39 39 40 41 41 42 42 43 44 45 46 47 48 49 50 51 52 53 54 55 56 57 58 58 59 59 60 60 60 59 59 60 60 59 59 60 61 61 61 60
38 39 39 39 40 40 41 42 42 43 44 44 45 46 47 48 49 50 51 52 53 54 55 56 57 57 58 58 59 59 60 60 60 60 60 60 60 60 60 61 61 61 60
39 39 40 40 42 42 42 43 43 44 44 45 45 46 47 48 49 50 51 52 53 53 54 55 56 57 58 58 59 59 60 60 60 60 60 59 59 59 60 61 61 61 61
40 40 40 41 42 42 43 43 43 44 45 46 47 47 48 49 49 50 51 51 52 53 54 55 55 56 57 58 58 59 59 59 59 59 60 60 60 60 60 60 61 61 61
40 41 41 42 42 42 43 43 44 45 46 47 47 48 49 50 50 51 51 52 52 53 53 54 54 55 56 57 58 58 59 58 59 59 59 59 60 60 59 60 60 60 60
42 42 42 42 43 43 43 44 45 45 46 47 47 48 49 50 51 51 52 52 52 53 53 53 54 54 55 56 57 58 58 58 58 58 58 58 58 58 58 58 58 58 59
42 42 42 42 43 43 43 44 44 45 46 46 47 48 48 49 50 51 51 52 52 53 53 54 54 55 55 56 57 57 58 58 57 57 57 57 57 57 56 57 57 58 58
42 42 42 42 42 43 43 44 44 45 45 46 46 46 47 47 48 49 50 51 52 52 52 53 54 55 55 56 56 56 56 56 56 56 56 56 55 55 55 55 56 56 57
Wind_Direction
261 261 260 259 258 257 255 254 254 254 255 254 254 253 253 253 253 253 253 253 253 253 254 255 255 255 255 255 255 256 257 258 258 258 258 258 258 258 257 257 258 258 259
261 261 260 260 259 258 256 255 255 255 255 255 255 254 254 254 254 254 254 253 254 254 254 254 255 255 256 256 256 257 258 259 260 260 260 259 259 259 259 258 258 258 258
263 261 260 260 260 259 257 256 256 256 255 255 255 255 254 254 255 254 254 255 256 256 257 256 255 255 255 256 257 258 259 259 260 260 260 261 261 261 260 260 259 259 259
265 264 263 261 260 260 258 257 257 256 256 256 256 255 255 254 254 254 254 255 256 256 257 257 257 257 257 257 258 258 259 260 260 261 261 262 262 261 260 260 261 261 262
265 265 265 264 262 260 259 259 258 258 257 256 256 256 255 254 254 255 255 255 256 256 257 258 257 256 257 258 259 259 259 260 260 261 262 262 262 261 260 259 261 261 262
267 265 264 264 263 262 261 260 259 259 258 257 256 256 255 254 254 255 256 256 256 256 257 259 259 258 258 259 259 259 259 260 260 261 261 262 263 263 262 261 261 261 262
269 267 266 264 264 264 264 262 262 261 260 258 256 255 255 254 254 254 256 257 258 257 257 258 259 260 260 260 259 259 259 260 260 261 262 263 263 263 262 262 262 262 262
271 270 269 267 267 266 265 264 263 262 261 259 257 256 254 255 255 255 255 257 258 258 258 259 260 261 261 261 261 261 260 260 261 261 262 263 263 263 263 263 263 262 262
273 271 270 269 268 268 266 264 263 262 261 260 258 257 256 255 256 257 258 258 259 260 260 260 261 261 262 263 263 262 262 262 262 262 263 264 264 264 263 263 264 263 263
275 272 270 270 269 268 267 265 263 263 262 261 260 259 258 257 257 258 258 259 259 260 261 260 261 261 261 262 264 264 264 264 264 265 265 265 264 264 264 264 264 264 264
276 275 273 271 270 269 267 265 263 263 262 262 261 260 260 260 259 259 260 260 259 259 260 260 261 261 262 263 264 264 265 266 266 266 266 266 266 265 265 265 265 265 265
276 275 274 273 272 270 268 267 265 263 263 262 261 261 260 260 261 261 261 261 261 261 261 262 263 264 263 263 263 264 265 266 267 267 266 267 267 267 266 267 267 266 266
276 275 274 273 272 271 269 268 266 264 263 263 262 262 261 261 262 262 262 262 262 261 261 262 263 264 264 265 265 265 265 265 266 266 266 267 267 267 267 267 267 267 267
277 275 275 274 273 272 271 270 268 266 264 264 264 264 263 263 263 263 263 263 262 262 262 263 264 265 265 266 266 266 266 266 266 267 267 266 266 266 267 267 267 266 266
278 277 276 275 275 273 272 271 269 268 267 266 265 265 265 264 265 264 264 264 263 263 263 264 265 265 266 266 266 267 267 267 267 268 268 267 267 267 267 267 267 266 266
280 278 276 275 274 274 273 272 271 270 269 268 267 266 266 266 266 265 264 263 264 264 264 264 264 264 265 265 267 268 269 269 269 268 268 268 268 268 267 267 267 267 267
281 279 277 276 275 274 274 274 273 272 271 270 269 268 268 267 267 266 265 264 265 265 265 265 266 266 266 266 267 268 269 269 269 269 268 268 268 268 267 267 268 268 268
282 281 280 280 278 276 275 275 274 273 273 272 271 270 270 269 268 268 267 266 266 265 265 265 266 266 267 267 268 268 269 269 270 269 269 268 268 268 268 267 267 268 268
282 282 281 280 279 278 277 277 277 276 275 274 273 272 271 271 270 269 267 267 267 267 267 266 267 267 267 268 268 268 269 270 270 270 270 269 268 268 268 267 267 267 267
284 283 282 280 279 279 279 278 278 278 277 276 275 274 272 271 270 270 269 269 268 268 267 268 268 268 268 268 269 270 270 270 270 270 269 269 268 268 267 267 267 267 266
285 284 283 282 280 280 280 280 280 279 278 277 276 275 274 273 272 271 270 270 270 269 269 269 269 269 269 269 269 270 270 270 270 269 269 268 268 268 268 268 267 266 266
286 285 284 284 284 283 281 281 281 280 279 278 277 276 276 275 274 273 272 272 271 271 270 270 270 270 269 269 269 269 270 270 270 269 269 268 268 268 268 268 268 267 266
288 287 285 285 285 284 283 282 281 281 280 278 278 277 277 276 276 275 274 274 273 272 272 271 271 270 270 270 270 270 271 271 271 270 269 268 268 268 268 268 268 267 266
289 288 287 286 285 285 284 284 283 282 281 280 279 279 278 277 277 277 276 275 274 273 273 272 272 272 272 272 272 272 272 272 271 270 269 268 267 267 267 267 267 267 267
289 288 288 287 286 286 285 285 284 283 283 282 282 281 280 279 278 277 277 277 276 275 274 274 273 273 273 273 273 273 272 272 271 270 269 268 267 268 268 268 268 268 268
290 289 289 288 287 286 286 286 285 285 284 284 284 283 281 280 279 279 278 278 278 277 277 277 276 276 276 275 274 274 273 272 271 270 269 268 267 267 268 268 268 268 268